Regional Weather Roundup
Issued by NWS State College, PA

Home | Current Version | Previous Version | Text Only | Print | Product List | Glossary On
Versions: 1 2 3 4 5 6 7 8 9 10 11 12 13 14 15 16 17 18 19 20 21 22 23 24 25 26 27 28 29 30 31 32 33 34 35 36 37 38 39 40 41 42 43 44 45 46 47 48 49 50
000
ASUS41 KCTP 252110
RWRCTP

REGIONAL WEATHER ROUNDUP
NATIONAL WEATHER SERVICE STATE COLLEGE PA
500 PM EDT SAT OCT 25 2014

Note: "fair" indicates few or no clouds below 12,000 feet with no
significant weather and/or obstructions to visibility.

* = STATION THAT DOES NOT REPORT PRECIPITATION /E.G. RAIN...SNOW...ETC/
    THUNDER OR FOG.

PAZ002>004-007>009-013>016-020>023-029>032-252200-
WESTERN PENNSYLVANIA

CITY           SKY/WX    TMP DP  RH WIND       PRES   REMARKS
ERIE           PTSUNNY   59  51  75 W14G22    29.70F
MEADVILLE      SUNNY     65  50  58 W14G21    29.71F
FRANKLIN*      PTSUNNY   64  50  59 W12G18    29.73F
NEW CASTLE       N/A     68  54  60 SW13G22   29.75F
BEAVER COUNTY  PTSUNNY   66  52  59 W9G20     29.76F
BUTLER*        PTSUNNY   64  50  59 SW18G24   29.77F
PITTSBURGH INT MOSUNNY   65  51  60 SW13G25   29.77F
PITTSBURGH     MOSUNNY   65  47  52 W17G30    29.77F
INDIANA*       CLOUDY    64  50  59 W13G21    29.78F
LATROBE        PTSUNNY   64  50  59 SW12G23   29.78F
WASHINGTON CO* MOSUNNY   64  52  63 SW12G21   29.81F
$$

PAZ004>006-010>012-017>019-024>028-033>037-041-042-045-046-049>053-252200-
CENTRAL PENNSYLVANIA

CITY           SKY/WX    TMP DP  RH WIND       PRES   REMARKS
BRADFORD       PTSUNNY   61  47  59 W13G20    29.68F
DUBOIS         MOSUNNY   62  48  60 SW18G28   29.71F
CLEARFIELD     PTSUNNY   63  48  58 SW17G28   29.71F
JOHNSTOWN      CLOUDY    60  46  59 W14G26    29.77F
ALTOONA        SUNNY     65  48  54 W13       29.75F
STATE COLLEGE  PTSUNNY   63  48  59 W16       29.71F
WILLIAMSPORT   PTSUNNY   69  44  40 W14       29.65F
SELINSGROVE    CLOUDY    69  44  40 VRB7      29.68F
FT INDIANTOWN  PTSUNNY   67  47  48 SW9       29.70F
CAPITAL CITY   PTSUNNY   70  46  42 SW10      29.70F
HARRISBURG     PTSUNNY   69  46  43 SW6       29.69F
YORK           PTSUNNY   68  43  40 SW8       29.72F
$$

PAZ038>040-043-044-047-048-054-055-060>062-067>071-252200-
EASTERN PENNSYLVANIA

CITY           SKY/WX    TMP DP  RH WIND       PRES   REMARKS
SCRANTON       PTSUNNY   65  42  43 SW8       29.65F
MOUNT POCONO   SUNNY     60  41  49 W12G22    29.69F
ALLENTOWN      MOSUNNY   66  43  43 SW14G24   29.69F
QUAKERTOWN*    CLEAR     66  43  42 SW10      29.70F
READING        SUNNY     68  43  40 SW10      29.70F
LANCASTER      SUNNY     67  44  43 W16       29.71F
COATESVILLE    CLEAR     64  45  48 W6        29.74F
POTTSTOWN      SUNNY     67  41  38 SW9       29.71F
BLUE BELL      SUNNY     68  45  42 W9G16     29.70F
DOYLESTOWN     SUNNY     65  43  44 SW13G20   29.69F
WILLOW GROVE   NOT AVBL
NORTH PHILA    SUNNY     69  41  36 W14G22    29.71F
PHILADELPHIA   SUNNY     69  46  43 SW10      29.72F
$$



USA.gov is the U.S. government's official web portal to all federal, state and local government web resources and services.